Weather in Ponta Delgada

Portugal     37°44′29″N   25°40′46″W
temp.,
°C
wind,
m/s
gust,
m/s
humid.,
%
clouds,
%
prec.,
mm/h
press.,
hPa
HPBL,
m
8 march, mon
mon823:00+15nnw7129563 0.2 1030420
02:00+16nnw61195100 0.1 1029346
05:00+15n469693 0.3 1028225
08:00+14n579093 0.0 1029527
11:00+15nne468576 0.1 1031480
14:00+15n458151 0.0 1030462
17:00+15n458244 0.0 1029389
20:00+13nne458627 0.0 1031262
9 march, tue
tue923:00+13nne238551 0.0 1030151
02:00+13n228325 0.0 1030139
05:00+13nw228546 0.0 1028154
08:00+13wnw228638 0.0 1029173
11:00+15w348650 0.0 1029302
14:00+16wsw4488100 0.0 1028337
17:00+16wsw348878 0.0 1027262
20:00+15wsw23920 0.0 102864
10 march, wed
wed1023:00+15sw349213 0.0 1028119
02:00+15wsw469551 0.0 1027199
05:00+15wsw479753 0.0 1026320
08:00+15w4892100 0.2 1027335
11:00+16wsw5887100 0.3 1028369
14:00+16wsw5882100 0.1 1027363
17:00+16sw5884100 0.1 1026342
20:00+15wsw5891100 0.1 1028257
11 march, thu
thu1123:00+15wsw4693100 0.3 1029197
02:00+15wnw3494100 0.3 1028155
05:00+14ne3393100 0.4 1028140
08:00+14ne4592100 0.1 1030257
11:00+13nne5691100 0.5 1031338
14:00+13ne5788100 0.3 1031470
17:00+13ne5786100 1.1 1031507
20:00+12ne5685100 0.3 1032371
12 march, fri
fri1223:00+12ene3580100 0.4 1033386
02:00+12ene457892 0.1 1032478
05:00+12ne567896 0.1 1031550
08:00+12ene4576100 0.0 1032548
11:00+13e3472100 0.0 1033661
14:00+14ese4574100 0.0 1031607
17:00+14ese5679100 0.0 1030582
20:00+13se7985100 0.0 1030521